Dewpoint
21 17 17 15 14 14 17 17 17 20 22 25 28 32 36 37 38 40 41 43 46 47 48 53 55 56 56 56 55 56 55 55 55 56 55 55 54 56 56 57 59 60 61 63
18 20 18 18 19 19 19 18 18 20 23 27 30 30 33 37 38 38 41 43 43 44 45 47 48 49 50 52 55 55 55 54 54 54 55 55 55 55 56 57 57 59 60 61
15 17 19 20 20 19 19 17 19 19 22 22 24 27 31 35 38 39 39 41 41 43 43 45 47 48 48 49 50 51 52 53 53 53 54 53 53 53 54 54 55 56 59 61
17 18 19 18 18 18 16 21 21 20 19 13 20 14 29 34 36 38 39 39 40 41 43 44 46 47 48 48 49 49 50 49 52 52 53 52 51 51 52 53 55 56 58 59
22 21 18 18 21 19 20 23 23 22 19 22 18 15 22 30 32 36 38 39 40 42 43 45 44 45 47 49 49 49 48 48 49 50 52 53 51 51 52 53 54 55 56 57
27 29 22 22 25 24 23 20 21 23 20 16 18 17 17 26 29 34 38 40 40 41 43 43 44 45 44 45 47 49 49 49 50 50 51 52 52 51 51 52 53 54 55 56
27 27 27 25 23 24 21 20 18 12 16 14 21 19 19 25 30 33 36 39 41 41 42 43 43 43 43 44 46 47 48 47 48 48 48 49 50 50 51 51 53 53 53 54
25 23 26 27 24 23 20 19 17 11 14 15 21 19 20 29 34 38 39 40 41 39 40 41 41 42 43 45 47 47 46 46 47 47 47 47 47 48 50 51 52 53 54 54
23 24 28 32 28 24 24 20 21 20 21 19 20 20 26 36 37 39 40 40 40 39 39 40 42 43 45 47 46 47 46 46 45 45 45 45 46 46 47 48 50 51 53 53
29 23 29 31 29 25 22 24 20 22 18 16 18 19 20 28 34 37 39 39 39 38 40 41 42 44 45 45 46 45 44 44 44 45 44 44 45 46 47 48 48 49 51 51
30 26 26 25 22 23 22 23 23 22 22 15 16 19 28 31 28 29 38 40 40 39 39 41 41 41 42 44 41 42 42 43 43 43 44 44 44 45 47 48 48 50 51 50
33 27 23 21 24 28 25 26 25 25 20 22 22 21 35 36 38 38 39 40 39 38 38 38 39 41 41 39 40 41 42 42 42 44 45 44 44 44 47 49 49 51 50 49
28 22 22 18 20 22 29 30 27 26 25 22 19 20 36 37 36 36 35 36 36 38 38 39 40 40 40 40 40 41 42 42 43 44 45 43 44 45 48 50 49 49 49 48
32 22 22 21 19 26 29 32 31 28 22 24 23 24 32 35 35 36 36 36 36 38 39 39 40 40 40 40 40 42 42 42 43 43 44 44 46 48 48 48 48 48 48 47
29 24 24 24 24 31 32 32 29 27 26 24 25 25 32 35 36 36 37 37 37 38 39 40 40 40 40 39 41 41 41 42 43 44 45 45 49 48 47 46 46 46 46 45
34 27 31 30 32 33 31 31 30 28 29 28 34 33 37 38 37 37 36 36 37 38 40 40 40 39 38 39 41 40 41 43 44 45 45 48 46 46 45 45 45 45 45 45
32 31 29 21 30 27 23 27 27 29 36 34 31 33 37 36 36 36 36 36 38 39 40 40 39 39 39 40 41 40 41 43 45 46 47 45 45 44 44 45 44 44 44 45
30 28 27 23 25 14 21 31 34 33 37 37 36 36 36 36 37 38 38 38 38 40 40 39 39 39 40 40 40 42 43 45 46 45 44 44 43 43 44 44 44 44 45 44
33 31 26 23 17 25 32 35 34 32 31 37 35 35 36 37 38 38 39 39 40 41 41 41 40 40 40 40 42 43 43 46 44 43 43 43 43 43 43 43 44 44 44 44
33 32 29 25 22 26 28 37 38 35 28 36 37 36 36 37 34 34 40 41 41 41 40 40 39 40 40 41 43 43 44 43 42 43 43 43 43 43 43 44 44 45 44 44
30 30 26 26 25 30 36 37 37 27 29 34 37 37 37 36 37 39 40 39 40 40 39 39 39 39 39 42 42 42 43 42 43 44 44 44 44 44 45 45 46 45 45 45
31 29 28 32 30 28 39 36 31 33 35 36 37 38 38 38 39 38 38 39 37 37 37 38 39 38 41 43 43 43 42 44 44 44 44 43 43 44 44 45 44 44 44 43
27 33 30 32 31 36 37 35 37 37 37 38 38 39 38 38 37 37 37 36 37 37 38 39 38 40 43 44 44 42 43 44 44 43 42 41 42 41 42 41 41 41 42 42
29 33 29 28 29 34 36 37 38 39 38 39 39 38 38 36 36 36 36 37 38 39 39 38 39 41 43 44 43 44 44 44 43 41 41 41 39 40 40 38 36 35 36 37
30 31 29 29 31 32 33 35 37 40 39 39 38 37 36 36 36 36 38 39 39 40 40 41 41 43 43 43 43 44 44 43 40 40 40 40 39 37 36 36 36 36 36 36
31 29 28 29 31 32 33 37 39 38 38 37 36 35 35 36 36 39 39 40 40 40 41 41 43 43 43 43 42 42 42 40 39 39 38 38 36 36 35 35 37 37 38 39
Lifted_Index
6 5 5 5 5 5 4 4 4 4 5 5 5 5 5 6 5 5 4 4 4 3 3 2 2 2 2 3 3 4 4 5 6 6 6 6 6 5 5 4 3 2 1 0
5 5 5 5 5 5 4 4 4 4 5 5 5 5 5 5 5 4 4 4 3 3 3 2 2 2 3 3 4 4 5 5 6 6 6 6 6 6 5 4 4 3 1 1
5 5 5 5 5 4 4 4 4 4 4 5 5 4 4 5 4 4 4 3 3 3 3 3 3 4 4 5 5 5 6 6 6 6 5 5 6 6 5 5 5 4 2 1
4 5 5 5 4 4 4 4 4 4 4 4 4 3 4 4 4 4 4 3 3 4 4 4 4 5 5 6 6 6 7 7 6 5 5 4 5 5 5 5 5 4 3 2
4 4 4 4 4 4 4 4 4 4 3 3 3 3 3 4 5 4 4 4 4 4 4 5 5 5 6 6 6 6 7 6 6 5 4 4 4 4 5 5 5 5 4 3
4 4 4 4 4 4 4 4 3 3 3 2 3 3 4 4 5 4 4 4 4 5 5 5 5 5 5 6 6 6 6 6 5 5 4 4 4 4 5 5 5 4 4 3
3 3 3 3 3 3 3 3 3 2 1 2 3 4 4 5 5 5 5 5 5 5 4 4 4 4 4 5 6 6 6 6 5 5 5 5 5 6 6 6 5 5 4 4
3 3 3 3 3 3 4 3 3 2 1 2 4 4 4 5 5 5 5 4 4 4 4 4 4 4 4 5 6 6 6 6 6 6 6 6 6 7 7 7 6 6 5 4
2 2 3 3 3 4 4 4 4 3 2 3 4 4 4 5 5 4 4 4 4 4 4 4 4 4 5 5 6 6 6 6 6 7 7 7 7 7 8 8 8 7 5 5
2 2 2 3 3 4 4 5 5 4 3 2 3 4 4 4 4 4 4 4 3 3 4 4 4 5 5 6 6 7 7 7 7 7 7 7 7 8 8 8 8 7 6 5
2 2 2 2 3 4 5 5 5 5 4 3 3 3 4 4 4 4 4 3 3 3 4 4 5 5 6 6 7 7 7 7 7 8 8 7 8 8 8 7 7 6 5 4
3 2 2 3 4 5 6 6 6 5 4 3 3 4 4 5 4 4 4 3 3 4 4 4 5 5 6 6 6 7 7 7 8 8 8 8 8 8 7 6 6 5 4 4
3 3 3 3 5 6 6 6 6 6 5 4 3 4 4 4 4 4 3 3 3 4 4 5 5 5 5 5 6 7 7 8 8 8 8 8 8 7 6 6 5 4 4 4
3 3 3 4 5 6 6 6 6 6 5 4 4 4 4 4 4 4 3 3 4 4 5 5 5 5 5 5 6 7 8 8 9 9 8 8 7 7 6 6 5 5 4 4
4 3 4 4 5 5 5 5 5 5 5 4 4 4 4 4 4 3 3 4 4 4 5 4 4 4 4 5 6 7 8 8 8 8 8 8 7 7 7 7 6 6 6 5
4 4 4 4 5 5 5 5 5 5 5 4 4 4 4 4 3 3 4 4 4 4 4 4 4 4 5 5 7 7 8 8 8 8 8 7 7 8 8 8 8 8 7 7
5 5 5 4 4 4 4 5 5 5 4 4 4 4 4 3 3 4 4 4 4 4 4 3 4 4 5 6 7 7 8 8 8 8 8 7 8 8 9 9 9 9 9 9
6 5 5 4 4 4 4 5 5 4 4 4 4 4 3 4 4 4 4 4 4 3 3 4 4 5 6 7 8 8 8 9 8 8 8 8 8 9 9 9 9 9 9 9
5 5 4 4 3 3 4 5 4 4 4 4 4 4 4 4 4 4 4 3 3 3 4 4 5 7 8 8 8 9 9 9 8 8 8 8 9 9 9 9 9 9 9 8
4 4 4 3 3 3 4 4 4 4 4 4 4 4 4 4 4 4 4 4 4 4 5 6 7 8 9 8 9 9 9 8 8 8 9 9 9 9 9 8 8 8 8 8
3 3 3 4 4 4 4 4 4 4 4 4 4 4 4 4 4 4 4 5 5 6 7 8 9 9 9 9 9 9 8 8 9 9 9 9 9 8 8 8 8 8 8 8
3 3 4 4 4 4 4 5 5 4 4 4 4 4 4 4 4 5 5 6 7 7 8 10 10 9 9 9 8 8 8 9 9 9 9 8 8 8 8 8 8 8 7 7
4 4 5 5 5 5 5 5 5 4 4 3 3 4 4 4 5 6 7 7 7 8 10 11 10 9 8 8 8 8 8 9 9 9 8 8 8 8 8 8 8 7 7 7
6 6 6 7 6 6 5 5 4 4 3 3 3 4 4 5 6 6 7 7 8 9 10 10 9 8 8 8 8 9 9 9 10 9 9 8 8 8 8 8 7 6 6 6
7 8 8 7 7 6 5 4 4 3 3 3 3 4 5 6 6 7 7 7 8 8 9 9 8 8 8 9 9 10 10 10 10 9 9 8 8 8 7 7 6 5 5 4
8 8 8 7 7 6 5 4 3 3 3 3 3 4 5 6 6 7 7 8 8 8 8 8 8 8 8 9 10 10 10 10 10 9 9 8 8 7 7 6 5 4 4 4